Powrót do katalogu

HULIANWANG DIGUI-177

AktywnyNaukaLEO
NORAD 69580·PAYLOAD·🇨🇳 China

Wystrzelony Jun 17, 2026 z Wenchang Space Launch Site

Loading…

Następne Przeloty (najbliższe 24 godziny)

TLE

ŚwieżeSource: Space-Track

Epoka: Sep 14, 2026, 18:52 UTC

1 69580U 26137J   26257.78657990 -.00000091  00000-0  71062-4 0  9991
2 69580  49.9977 274.1886 0000171 331.1831  28.9032 13.29325873 12268

Śledź HULIANWANG DIGUI-177 w czasie rzeczywistym z AllMySat

Download on the App Store